Powrót do katalogu

DELTA 1 DEB

AktywnyLEO
NORAD 49109·DEBRIS·🇺🇸 United States

Wystrzelony Jul 14, 1977 z Cape Canaveral Space Force Station

Loading…

Następne Przeloty (najbliższe 24 godziny)

TLE

ŚwieżeSource: Space-Track

Epoka: Sep 14, 2026, 06:30 UTC

1 49109U 77065GR  26257.27148070  .00000682  00000-0  14275-3 0  9997
2 49109  29.0639 309.7013 0653342  11.4603 350.0091 13.68666366 25056

Śledź DELTA 1 DEB w czasie rzeczywistym z AllMySat

Download on the App Store